Regional Weather Roundup
Issued by NWS Burlington, VT

Home | Current Version | Previous Version | Text Only | Print | Product List | Glossary On
Versions: 1 2 3 4 5 6 7 8 9 10 11 12 13 14 15 16 17 18 19 20 21 22 23 24 25 26 27 28 29 30 31 32 33 34 35 36 37 38 39 40 41 42 43 44 45 46 47 48 49 50
000
ASUS41 KBTV 060230
RWRBTV
VERMONT REGIONAL WEATHER ROUNDUP
NATIONAL WEATHER SERVICE BURLINGTON VT
1000 PM EDT SUN JUL 05 2015

NOTE: "FAIR" INDICATES FEW OR NO CLOUDS BELOW 12,000 FEET WITH NO
SIGNIFICANT WEATHER AND/OR OBSTRUCTIONS TO VISIBILITY.

* THESE REPORTS ARE NOT UNDER NWS QUALITY CONTROL AND/OR DO NOT
  REPORT WEATHER SUCH AS PRECIPITATION AND FOG.

VTZ001>019-060300-
_____VERMONT_____


CITY           SKY/WX    TMP DP  RH WIND       PRES   REMARKS
BURLINGTON     CLEAR     69  61  75 SE3       30.12R
MONTPELIER     CLEAR     62  58  86 CALM      30.18R
MORRISVILLE    CLEAR     65  59  81 CALM      30.15R
ST. JOHNSBURY*   N/A     65  58  78 MISG      30.12R
LYNDONVILLE*   FAIR      62  57  82 SW3       30.17R
MIDDLEBURY*    FAIR      66  65  97 CALM      30.12R
RUTLAND*       CLEAR     64  57  77 SE5       30.15R
SPRINGFIELD    CLEAR     65  61  87 CALM      30.14R
HIGHGATE*      FAIR      64  62  91 CALM      30.11R
NEWPORT*       FAIR      63  58  82 CALM      30.15R
BENNINGTON     CLEAR     61  57  87 S3        30.15R
SUTTON*          N/A     61 N/A N/A MISG        N/A
GALLUP MILLS*    N/A     57 N/A N/A MISG        N/A
MT. MANSFIELD*   N/A     57 N/A N/A NW10        N/A

_____LAKE CHAMPLAIN_____


CITY           SKY/WX    TMP DP  RH WIND       PRES   REMARKS
BURTON ISLAND*   N/A     70  64  83 S2          N/A
COLCHESTER RF*   N/A     70  63  78 W1          N/A
DIAMOND ISL*     N/A     70  64  83 N1          N/A

$$

NYZ007-026>031-035-052-083-060300-
_____NORTHERN NEW YORK_____


CITY           SKY/WX    TMP DP  RH WIND       PRES   REMARKS
PLATTSBURGH    CLEAR     65  63  93 CALM      30.11R
SARANAC LAKE   CLEAR     56  55  97 CALM      30.16R
MASSENA        CLEAR     68  60  75 SW7       30.12R
OGDENSBURG*    CLEAR     63  61  94 S3        30.12R
POTSDAM*       CLEAR     64  63  94 S3        30.14R
STARK FALLS*     N/A     66 N/A N/A SE5         N/A
WATERTOWN      CLEAR     60  57  89 CALM      30.13R
FT DRUM        CLEAR     64  59  82 S5        30.14R
ALBANY         PTCLDY    70  60  70 SW3       30.12R
GLENS FALLS    CLEAR     66  61  84 CALM      30.11R

$$
NHZ002-005-011-060300-
_____NEW HAMPSHIRE_____


CITY           SKY/WX    TMP DP  RH WIND       PRES   REMARKS
LEBANON        PTCLDY    65  61  87 CALM      30.12R
KEENE          CLEAR     64  59  82 CALM      30.14R
MT WASHINGTON  FOG       48  48 100 NW29        N/A  VSB 1/16
PLYMOUTH       FAIR      61  61 100 CALM      30.13R FOG
WHITEFIELD     CLEAR     60  56  86 CALM      30.15R

$$

_____REGIONAL QUEBEC LOCATIONS_____


CITY           SKY/WX    TMP DP  RH WIND       PRES   REMARKS
MONTREAL       PTCLDY    73  61  64 W5        30.10R
QUEBEC CITY    MOCLDY    70  59  68 W9        30.06R
SHERBROOKE     MOCLDY    63  61  94 CALM      30.11R

_____REGIONAL ONTARIO LOCATIONS_____


CITY           SKY/WX    TMP DP  RH WIND       PRES   REMARKS
OTTAWA         PTCLDY    70  63  78 S6        30.11R

______KEY______
VSB  - VISIBILITY IN MILES
WCI  - WIND CHILL INDEX
HX   - HEAT INDEX
$$
NNNN


USA.gov is the U.S. government's official web portal to all federal, state and local government web resources and services.